FW5185 Weather Reports


Display with metric or nautical units.
time (UTC)temp
F
wind
direction
speed
MPH
gust
MPH
rain 1hr
in
rain 24hr
in
rain mn
in
humidity
%
barometer
mb
20260505111530 38 218 3.0 9.0 0.00 0.04 0.02 94 1005.0
20260505111025 38 163 5.0 10.0 0.00 0.04 0.02 95 1005.1
20260505110525 39 196 5.0 11.0 0.00 0.04 0.02 95 1005.2
20260505102018 39 196 1.0 8.0 0.01 0.04 0.02 95 1004.8
20260505101518 38 146 2.0 8.0 0.01 0.04 0.02 95 1004.6
20260505101018 38 198 2.0 5.0 0.01 0.04 0.02 95 1004.6
20260505100516 38 200 2.0 6.0 0.01 0.04 0.02 95 1004.6
20260505100027 38 202 3.0 6.0 0.01 0.04 0.02 95 1004.5
20260505095514 39 204 2.0 6.0 0.01 0.04 0.02 95 1004.4
20260505095016 39 204 2.0 6.0 0.01 0.04 0.02 95 1004.5
20260505094517 39 216 2.0 6.0 0.01 0.04 0.02 94 1004.5
20260505094013 39 215 2.0 6.0 0.01 0.04 0.02 94 1004.6
20260505093512 39 196 2.0 5.0 0.01 0.04 0.02 95 1004.6
20260505093019 39 194 2.0 4.0 0.01 0.04 0.02 95 1004.5
20260505092512 39 194 2.0 5.0 0.00 0.03 0.01 95 1004.3
20260505092011 39 197 1.0 5.0 0.00 0.03 0.01 95 1004.4
20260505091511 39 178 2.0 7.0 0.00 0.03 0.01 95 1004.5
20260505091010 39 169 2.0 5.0 0.00 0.03 0.01 95 1004.4
20260505090510 39 128 1.0 5.0 0.00 0.03 0.01 95 1004.4
20260505090009 39 125 1.0 4.0 0.00 0.03 0.01 95 1004.4
20260505085514 39 128 2.0 4.0 0.00 0.03 0.01 95 1004.4
20260505085008 39 58 1.0 3.0 0.00 0.03 0.01 94 1004.4
20260505084511 39 50 1.0 4.0 0.00 0.03 0.01 94 1004.7
20260505084006 39 50 1.0 4.0 0.00 0.03 0.01 94 1004.9
20260505083502 39 46 0.0 3.0 0.00 0.03 0.01 94 1004.9
20260505083002 39 46 0.0 2.0 0.00 0.03 0.01 94 1004.9
20260505082506 40 46 0.0 0.0 0.00 0.03 0.01 94 1005.0
20260505082001 40 46 0.0 0.0 0.00 0.03 0.01 94 1005.2
20260505081503 40 46 0.0 2.0 0.00 0.03 0.01 94 1005.4
20260505081101 40 46 0.0 4.0 0.00 0.03 0.01 94 1005.2
20260505080603 40 46 3.0 4.0 0.00 0.03 0.01 94 1005.0
20260505080107 40 46 1.0 3.0 0.00 0.03 0.01 94 1005.3
20260505075600 40 46 0.0 2.0 0.00 0.03 0.01 94 1005.3
20260505075058 40 46 0.0 2.0 0.00 0.03 0.01 94 1005.5
20260505074558 40 46 0.0 3.0 0.00 0.03 0.01 94 1005.4
20260505074104 40 46 0.0 2.0 0.00 0.03 0.01 94 1005.4
20260505073556 40 46 0.0 4.0 0.00 0.03 0.01 94 1005.5
20260505073101 40 46 0.0 4.0 0.00 0.03 0.01 94 1005.5
20260505073003 40 46 1.0 4.0 0.00 0.03 0.01 94 1005.4
20260505072558 40 46 0.0 3.0 0.00 0.03 0.01 94 1005.4
20260505072057 40 50 0.0 3.0 0.00 0.03 0.01 94 1005.6
20260505071613 40 50 0.0 3.0 0.00 0.03 0.01 94 1005.3
20260505071059 40 50 0.0 3.0 0.01 0.03 0.01 94 1005.4
20260505070555 40 50 1.0 3.0 0.01 0.03 0.01 94 1005.3
20260505070055 40 50 0.0 3.0 0.01 0.03 0.01 94 1005.2
20260505065606 40 50 0.0 3.0 0.01 0.03 0.01 93 1005.4
20260505065052 40 50 0.0 2.0 0.01 0.03 0.01 93 1005.6
20260505064558 40 50 0.0 3.0 0.01 0.03 0.01 93 1005.5
20260505064053 40 50 0.0 3.0 0.01 0.03 0.01 93 1005.5
20260505063552 40 50 0.0 0.0 0.01 0.03 0.01 93 1005.5
20260505063053 40 50 0.0 1.0 0.01 0.03 0.01 93 1005.5
20260505062550 40 50 0.0 1.0 0.01 0.03 0.01 93 1005.4
20260505062049 40 50 0.0 1.0 0.01 0.03 0.01 93 1005.2
20260505061556 40 50 0.0 1.0 0.00 0.02 0.00 93 1005.3
20260505061049 40 50 0.0 5.0 0.00 0.02 0.00 92 1005.4
20260505060548 40 50 4.0 5.0 0.00 0.02 0.00 92 1005.1
20260505060058 40 52 0.0 0.0 0.00 0.02 0.02 92 1005.6
20260505055548 40 52 0.0 4.0 0.00 0.02 0.02 92 1005.7
20260505055050 40 52 0.0 5.0 0.00 0.02 0.02 92 1005.5
20260505054546 40 53 0.0 6.0 0.00 0.02 0.02 91 1005.6
20260505054046 40 49 1.0 5.0 0.00 0.02 0.02 91 1005.4
20260505053540 40 53 3.0 5.0 0.00 0.02 0.02 91 1005.4
20260505053040 40 42 1.0 6.0 0.00 0.02 0.02 91 1005.4
20260505052540 40 23 1.0 6.0 0.00 0.02 0.02 91 1005.4
20260505052040 40 355 2.0 6.0 0.00 0.02 0.02 90 1005.4
20260505051540 40 5 2.0 6.0 0.00 0.02 0.02 91 1005.2
20260505051040 40 355 2.0 5.0 0.00 0.02 0.02 91 1005.2
20260505050539 40 342 1.0 3.0 0.00 0.02 0.02 91 1005.3
20260505041548 40 19 3.0 6.0 0.01 0.02 0.02 89 1004.9
20260505041035 41 20 3.0 5.0 0.01 0.02 0.02 89 1004.7
20260505040536 41 30 3.0 8.0 0.01 0.02 0.02 89 1004.8
20260505040034 41 30 2.0 9.0 0.01 0.02 0.02 89 1004.6
20260505035535 41 28 4.0 9.0 0.01 0.02 0.02 89 1004.4
20260505035037 41 21 3.0 9.0 0.01 0.02 0.02 89 1004.3
20260505034532 41 16 4.0 8.0 0.01 0.02 0.02 89 1004.3
20260505034032 41 5 3.0 9.0 0.01 0.02 0.02 89 1004.6
20260505033531 41 29 4.0 10.0 0.01 0.02 0.02 89 1004.6
20260505033033 41 34 3.0 8.0 0.00 0.01 0.01 89 1004.8
20260505032531 41 21 3.0 8.0 0.00 0.01 0.01 89 1004.7
20260505032032 41 28 3.0 6.0 0.00 0.01 0.01 88 1004.5
20260505031528 42 13 2.0 8.0 0.00 0.01 0.01 88 1004.4
20260505031028 42 13 4.0 12.0 0.00 0.01 0.01 87 1004.3
20260505030527 42 36 6.0 10.0 0.00 0.01 0.01 86 1004.2
20260505030026 42 24 3.0 8.0 0.00 0.01 0.01 85 1004.1
20260505025526 43 355 2.0 5.0 0.00 0.01 0.01 84 1004.3
20260505025022 43 9 2.0 4.0 0.01 0.01 0.01 82 1004.2
20260505024522 43 13 1.0 6.0 0.01 0.01 0.01 82 1004.3
20260505024021 43 22 1.0 5.0 0.01 0.01 0.01 81 1004.1
20260505023521 43 22 2.0 5.0 0.01 0.01 0.01 81 1004.1
20260505023021 43 30 1.0 2.0 0.01 0.01 0.01 80 1004.0
20260505022520 43 30 0.0 2.0 0.01 0.01 0.01 80 1004.0
20260505022019 43 30 0.0 5.0 0.01 0.01 0.01 79 1004.0
20260505021519 43 30 1.0 5.0 0.01 0.01 0.01 77 1004.0
20260505021018 44 30 3.0 9.0 0.01 0.01 0.01 77 1003.8
20260505020517 44 30 3.0 9.0 0.01 0.01 0.01 78 1004.0
20260505020023 44 24 2.0 10.0 0.01 0.01 0.01 77 1004.1
20260505015517 44 24 3.0 8.0 0.01 0.01 0.01 78 1003.8
20260505015016 44 11 2.0 6.0 0.00 0.00 0.00 78 1003.7
20260505014529 44 12 1.0 6.0 0.00 0.00 0.00 78 1003.6
20260505014013 44 44 3.0 10.0 0.00 0.00 0.00 75 1003.4
20260505013513 45 44 6.0 10.0 0.00 0.00 0.00 74 1003.5
20260505013010 45 40 4.0 10.0 0.00 0.00 0.00 73 1003.7
20260505012512 46 23 4.0 10.0 0.00 0.00 0.00 70 1003.8
20260505012008 47 342 4.0 11.0 0.00 0.00 0.00 67 1003.5
20260505011506 48 5 6.0 13.0 0.00 0.00 0.00 61 1003.4
20260505011004 49 334 7.0 13.0 0.00 0.00 0.00 57 1003.3
20260505010504 49 333 2.0 11.0 0.00 0.00 0.00 53 1003.2
20260505010004 49 309 4.0 10.0 0.00 0.00 0.00 54 1002.9
20260505005507 49 41 5.0 12.0 0.00 0.00 0.00 54 1002.7
20260505005004 49 355 6.0 12.0 0.00 0.00 0.00 54 1002.6
20260505004506 49 355 4.0 13.0 0.00 0.00 0.00 55 1002.6
20260505004003 50 338 7.0 13.0 0.00 0.00 0.00 55 1002.5
20260505003503 50 39 6.0 15.0 0.00 0.00 0.00 54 1002.3
20260505003001 51 32 6.0 16.0 0.00 0.00 0.00 53 1002.2
20260505002501 51 19 8.0 16.0 0.00 0.00 0.00 52 1002.2
20260505002001 51 57 6.0 14.0 0.00 0.00 0.00 50 1002.0
20260505001606 52 9 8.0 18.0 0.00 0.00 0.00 49 1001.9
20260505001503 52 11 6.0 18.0 0.00 0.00 0.00 49 1002.0
20260505001103 52 338 10.0 18.0 0.00 0.00 0.00 49 1002.1
20260505000600 52 28 11.0 18.0 0.00 0.00 0.00 48 1002.2
20260505000104 53 16 9.0 18.0 0.00 0.00 0.00 46 1002.1
20260504235558 53 58 9.0 25.0 0.00 0.00 0.00 45 1002.1
20260504235058 54 17 12.0 25.0 0.00 0.00 0.00 42 1001.9
20260504234558 55 35 9.0 19.0 0.00 0.00 0.00 40 1001.8
20260504234057 55 84 8.0 19.0 0.00 0.00 0.00 41 1001.7
20260504233557 55 48 4.0 16.0 0.00 0.00 0.00 43 1001.9
20260504233059 55 102 9.0 16.0 0.00 0.00 0.00 41 1002.0
20260504232559 55 16 5.0 12.0 0.00 0.00 0.00 43 1002.3
20260504232055 55 50 5.0 16.0 0.00 0.00 0.00 41 1002.1
20260504231555 56 32 8.0 16.0 0.00 0.00 0.00 40 1002.0
20260504231055 57 5 4.0 11.0 0.00 0.00 0.00 40 1001.9
20260504230557 56 67 2.0 11.0 0.00 0.00 0.00 39 1001.7
20260504230054 56 90 5.0 14.0 0.00 0.00 0.00 39 1001.6
20260504225554 56 24 6.0 18.0 0.00 0.00 0.00 39 1001.6
20260504225053 57 28 5.0 13.0 0.00 0.00 0.00 39 1001.4
20260504224555 57 28 2.0 14.0 0.00 0.00 0.00 35 1001.5
20260504224058 57 355 4.0 14.0 0.00 0.00 0.00 37 1001.3
20260504223556 57 329 3.0 17.0 0.00 0.00 0.00 37 1001.1
20260504223107 58 307 5.0 17.0 0.00 0.00 0.00 36 1001.2
20260504222553 58 302 5.0 11.0 0.00 0.00 0.00 34 1001.1
20260504222052 59 5 3.0 16.0 0.00 0.00 0.00 34 1001.1
20260504221553 59 334 6.0 16.0 0.00 0.00 0.00 34 1000.9
20260504221052 59 224 2.0 10.0 0.00 0.00 0.00 33 1000.9
20260504220552 60 301 3.0 10.0 0.00 0.00 0.00 30 1000.9
20260504220052 60 19 3.0 8.0 0.00 0.00 0.00 30 1000.8
20260504215555 60 344 3.0 12.0 0.00 0.00 0.00 30 1000.7
20260504215051 60 323 3.0 12.0 0.00 0.00 0.00 30 1000.7
20260504214552 60 337 4.0 14.0 0.00 0.00 0.00 30 1000.6
20260504214055 60 26 5.0 14.0 0.00 0.00 0.00 30 1000.7
20260504213549 61 24 8.0 17.0 0.00 0.00 0.00 29 1000.7
20260504213151 60 71 5.0 17.0 0.00 0.00 0.00 30 1000.7
20260504212552 61 5 9.0 19.0 0.00 0.00 0.00 29 1000.7
20260504212048 61 32 10.0 18.0 0.00 0.00 0.00 30 1000.8
20260504211631 61 33 7.0 15.0 0.00 0.00 0.00 28 1000.7
20260504211048 61 360 6.0 13.0 0.00 0.00 0.00 29 1000.9
20260504210548 61 9 3.0 13.0 0.00 0.00 0.00 29 1000.7
20260504210051 61 320 5.0 18.0 0.00 0.00 0.00 29 1000.9
20260504205547 60 360 8.0 18.0 0.00 0.00 0.00 30 1000.8
20260504205046 60 32 5.0 15.0 0.00 0.00 0.00 31 1001.0
20260504204548 59 355 7.0 18.0 0.00 0.00 0.00 31 1001.1
20260504204046 60 332 8.0 18.0 0.00 0.00 0.00 30 1001.2
20260504203545 60 15 7.0 18.0 0.00 0.00 0.00 30 1001.3
20260504203045 61 331 8.0 18.0 0.00 0.00 0.00 29 1001.3
20260504202545 63 24 7.0 19.0 0.00 0.00 0.00 29 1001.3
20260504202047 62 315 9.0 19.0 0.00 0.00 0.00 28 1001.1
20260504201544 62 15 10.0 21.0 0.00 0.00 0.00 29 1001.3
20260504201044 62 340 8.0 16.0 0.00 0.00 0.00 28 1001.4
20260504200544 63 349 4.0 16.0 0.00 0.00 0.00 27 1001.5
20260504200044 62 256 5.0 16.0 0.00 0.00 0.00 27 1001.3
20260504195543 61 226 4.0 16.0 0.00 0.00 0.00 26 1001.3
20260504195042 61 239 6.0 13.0 0.00 0.00 0.00 27 1001.4
20260504194549 61 242 9.0 14.0 0.00 0.00 0.00 26 1001.5
20260504194042 62 238 5.0 12.0 0.00 0.00 0.00 25 1001.5
20260504193541 62 246 7.0 12.0 0.00 0.00 0.00 24 1001.5
20260504193041 64 211 2.0 7.0 0.00 0.00 0.00 23 1001.6
20260504192539 64 248 2.0 7.0 0.00 0.00 0.00 22 1001.5
20260504192040 63 223 3.0 9.0 0.00 0.00 0.00 23 1001.5
20260504191556 62 231 6.0 9.0 0.00 0.00 0.00 23 1001.5
20260504191039 62 217 5.0 12.0 0.00 0.00 0.00 22 1001.6
20260504190539 63 195 4.0 12.0 0.00 0.00 0.00 21 1001.6
20260504190044 63 176 1.0 7.0 0.00 0.00 0.00 22 1001.5
20260504185539 63 234 0.0 5.0 0.00 0.00 0.00 25 1001.6
20260504185038 62 360 2.0 5.0 0.00 0.00 0.00 25 1001.8
20260504184546 62 283 1.0 10.0 0.00 0.00 0.00 25 1002.0
20260504184036 61 248 3.0 9.0 0.00 0.00 0.00 24 1002.0
20260504183531 61 39 4.0 9.0 0.00 0.00 0.00 22 1002.0
20260504183029 61 247 3.0 8.0 0.00 0.00 0.00 23 1002.3
20260504151004 55 213 8.0 19.0 0.00 0.00 0.00 37 1004.2
20260504150503 55 247 5.0 19.0 0.00 0.00 0.00 37 1004.3
20260504141053 53 300 4.0 11.0 0.00 0.00 0.00 40 1004.4
20260504140553 53 275 4.0 10.0 0.00 0.00 0.00 39 1004.3
20260504130546 51 237 6.0 14.0 0.00 0.00 0.00 38 1004.4